Location: Pacheco
(37.9835°N, 122.0752°W)
Time: 07:12:59
(UTC+00:00)

Cosmos 1666 Rocket - Visible Passes

Search period start: 13 July 2024 00:00
Search period end: 23 July 2024 00:00
Orbit: 601 x 629 km, 82.5° (Epoch: 12 July)

Date Brightness Start Highest point End Pass type
(mag) Time Alt. Az. Time Alt. Az. Time Alt. Az.
13 Jul 6.5 12:01:33 10° ESE 12:03:50 14° E 12:06:09 10° NE visible
14 Jul 5.8 12:16:00 10° SE 12:19:35 26° E 12:23:12 10° NNE visible
17 Jul 6.4 11:27:59 10° ESE 11:29:59 13° E 11:32:02 10° ENE visible
18 Jul 5.8 11:42:14 10° SE 11:45:44 24° E 11:49:14 10° NE visible
19 Jul 4.7 11:57:24 10° SSE 12:01:31 44° E 12:05:42 10° NNE visible
20 Jul 3.6 12:13:04 10° S 12:17:24 87° E 12:21:49 10° N visible
21 Jul 6.4 10:54:27 10° ESE 10:56:08 12° E 10:57:50 10° ENE visible
21 Jul 3.8 12:29:11 10° SSW 12:33:22 49° W 12:37:39 10° N visible
22 Jul 5.8 11:08:29 10° SE 11:11:50 22° E 11:15:14 10° NE visible
